Regional Weather Roundup
Issued by NWS State College, PA

Home | Current Version | Previous Version | Graphics & Text | Print | Product List | Glossary On
Versions: 1 2 3 4 5 6 7 8 9 10 11 12 13 14 15 16 17 18 19 20 21 22 23 24 25 26 27 28 29 30 31 32 33 34 35 36 37 38 39 40 41 42 43 44 45 46 47 48 49 50
000
ASUS41 KCTP 272203
RWRCTP

REGIONAL WEATHER ROUNDUP
NATIONAL WEATHER SERVICE STATE COLLEGE PA
600 PM EDT FRI MAR 27 2015

Note: "fair" indicates few or no clouds below 12,000 feet with no
significant weather and/or obstructions to visibility.

* = STATION THAT DOES NOT REPORT PRECIPITATION /E.G. RAIN...SNOW...ETC/
    THUNDER OR FOG.

PAZ002>004-007>009-013>016-020>023-029>032-272300-
WESTERN PENNSYLVANIA

CITY           SKY/WX    TMP DP  RH WIND       PRES   REMARKS
ERIE           LGT SNOW  25  16  68 NW14G20   29.96R WCI  13
MEADVILLE      LGT SNOW  23  16  74 NW13      29.91R WCI  11
FRANKLIN*      CLOUDY    25  16  68 NW10G17   29.89R WCI  15
NEW CASTLE     FLURRIES  27  20  75 NW10      29.93R
BEAVER COUNTY  CLOUDY    28  18  64 NW12G18   29.90R
BUTLER*        PTSUNNY   28  18  64 NW10G21   29.90R
PITTSBURGH INT FLURRIES  30  21  69 NW16      29.88R
PITTSBURGH     LGT SNOW  29  21  72 NW12G22   29.86R
INDIANA*       PTSUNNY   32  23  69 NW9       29.87R
LATROBE        FLURRIES  32  27  80 NW14      29.87R
WASHINGTON CO* CLOUDY    30  25  80 N8        29.90R
$$

PAZ004>006-010>012-017>019-024>028-033>037-041-042-045-046-049>053-272300-
CENTRAL PENNSYLVANIA

CITY           SKY/WX    TMP DP  RH WIND       PRES   REMARKS
BRADFORD       LGT SNOW  26  20  77 NW12      29.79R
DUBOIS         CLOUDY    31  19  61 NW13G18   29.80R
CLEARFIELD     CLOUDY    33  19  56 NW13      29.81R
JOHNSTOWN      LGT SNOW  30  24  78 NW13      29.77R
ALTOONA        CLOUDY    37  24  59 NW14      29.79R
STATE COLLEGE  PTSUNNY   37  23  56 NW14      29.80R
WILLIAMSPORT   CLOUDY    42  20  41 NW9       29.78R
SELINSGROVE    CLOUDY    44  25  47 N9        29.78R
FT INDIANTOWN  SUNNY     43  21  41 VRB7      29.76R
CAPITAL CITY   CLOUDY    47  22  37 W10       29.77R
HARRISBURG     PTSUNNY   46  22  38 N13       29.76R
YORK           CLOUDY    45  25  45 NW14      29.77R
$$

PAZ038>040-043-044-047-048-054-055-060>062-067>071-272300-
EASTERN PENNSYLVANIA

CITY           SKY/WX    TMP DP  RH WIND       PRES   REMARKS
SCRANTON       CLOUDY    41  24  51 N8        29.75R
MOUNT POCONO   PTSUNNY   36  21  54 NW13G18   29.69S
ALLENTOWN      MOSUNNY   45  25  45 N12       29.75R
QUAKERTOWN*    PTCLDY    45  25  45 N7        29.75R
READING        SUNNY     46  22  38 N9        29.75R
LANCASTER      MOSUNNY   45  24  43 NW12      29.75R
COATESVILLE    CLOUDY    45  28  53 N7        29.74S
POTTSTOWN      PTSUNNY   44  25  47 NW8       29.76R
BLUE BELL      PTSUNNY   46  30  53 NW5       29.74R
DOYLESTOWN     PTSUNNY   43  27  53 N7        29.74R
WILLOW GROVE   NOT AVBL
NORTH PHILA    CLOUDY    46  28  49 N13       29.76R
PHILADELPHIA   CLOUDY    47  26  44 N8        29.75R
$$



USA.gov is the U.S. government's official web portal to all federal, state and local government web resources and services.